Content
SEND FEEDBACK

Daily
Averages
Monthly
Summary
Mexico

PUEBLA - JARDINES DE SAN MANUEL, PUEBLA


Home > North America > Mexico > Puebla
Elevation: 2122 meters     Latitude: 19 00N     Longitude: 098 11W

WEATHER
 
SELECT A DAY
Number of Records: 120,769;   Date Range: 1/1/95 - 7/11/14
 
SHARE

PRINT THIS DATA

[ ← Previous Day ]
WEATHER ALMANAC - 5 MARCH, 2013
[ Next Day → ]
[ °F ]   °C
Weather ElementAverageHighLow
Temperature16.3 °C26.7 °C (2:40 pm)2 °C (5:48 am)
Dewpoint-8.2 °C3.3 °C (11:45 pm)-18 °C (6:40 pm)
Humidity21 %50 % (10:42 pm)5 % (1:40 pm)
Barometer1023.4 hPa1030.8 hPa (9:40 pm)1006.4 hPa (5:40 pm)
Wind Speed11.6 km/h25.9 km/h (8:40 pm)
Wind Gust40.7 km/h (6:40 pm)
Weather ElementAverage
Visibility9.7 km
Wind DirectionSW (221.7 °)

Weather ElementTotal
Precipitation---
Heating Degree Days4 (Base 18.3)
Growing Degree Days4.3 (Base 10)
Averaged from 26 records on 5 March, 2013
WEATHER CONDITIONS BREAKOUT
WIND DIRECTION BREAKOUT
WEATHER BY HOUR - 5 MARCH, 2013
[ °F ]   °C
Local TimeTemperatureDewpointHumidityBarometerVisibilityWind DirectionWind SpeedGust SpeedPrecipitationEventsConditions
2:45 AM7.2 °C-5 °C29 %1012.9 hPa4.8 kmNE (40°)3.5 km/h
5:45 AM4.4 °C-5 °C38 %1016.9 hPa4.8 kmCalm
5:48 AM2 °C-13 °C33 %1028.1 hPa11.3 kmNNW (340°)14.8 km/hClear
6:40 AM2 °C-13 °C33 %1028.4 hPa11.3 kmNNW (340°)11.1 km/hClear
7:41 AM4 °C-12 °C31 %1029.1 hPa9.7 kmNNW (340°)14.8 km/hClear
8:41 AM11 °C-11 °C21 %1029.1 hPa9.7 kmNNW (340°)16.7 km/hClear
8:45 AM10.6 °C-5 °C21 %1021.3 hPa4.8 kmCalmHaze
9:43 AM17 °C-12 °C13 %1029.5 hPa9.7 kmNorth (350°)9.3 km/hClear
10:40 AM21 °C-12 °C10 %1029.1 hPa9.7 kmNorth (10°)9.3 km/hClear
11:41 AM23 °C-15 °C7 %1028.1 hPa11.3 kmNorth (10°)7.4 km/hClear
11:50 AM24.4 °C-2.8 °C8 %1017.9 hPa9.7 kmWest (280°)14.3 km/hHaze
12:41 PM24 °C-17 °C6 %1027.1 hPa12.9 kmWNW (300°)5.6 km/hClear
1:40 PM25 °C-17 °C5 %1025.7 hPa12.9 kmSSE (150°)5.6 km/hClear
2:40 PM26.7 °C-2.8 °C7 %1010.8 hPa9.7 kmSSW (200°)7.2 km/hHaze
2:44 PM26 °C-16 °C5 %1024.7 hPa12.9 kmNorth (350°)14.8 km/hClear
3:41 PM25 °C-9 °C10 %1024.7 hPa12.9 kmSouth (180°)13 km/hClear
4:40 PM25 °C-11 °C9 %1024.7 hPa12.9 kmSouth (190°)11.1 km/hClear
5:40 PM23.9 °C-5 °C7 %1006.4 hPa4.8 kmSE (140°)7.2 km/hHaze
5:40 PM22 °C-15 °C7 %1025.7 hPa12.9 kmENE (60°)18.5 km/h37 km/hClear
6:40 PM19 °C-18 °C7 %1026.8 hPa11.3 kmNNE (30°)22.2 km/h40.7 km/hClear
7:42 PM15 °C1 °C39 %1028.4 hPa9.7 kmNorth (350°)22.2 km/hClear
8:40 PM13 °C2 °C47 %1030.1 hPa9.7 kmNNW (340°)25.9 km/hClear
8:45 PM17.2 °C-4.4 °C12 %1007.5 hPa4.8 kmNNE (20°)3.5 km/h
9:40 PM12 °C1 °C47 %1030.8 hPa11.3 kmNNW (330°)22.2 km/hClear
10:42 PM11 °C1 °C50 %1030.8 hPa11.3 kmNorth (360°)16.7 km/hClear
11:45 PM12.2 °C3.3 °C44 %1011.2 hPa4.8 kmWest (270°)3.5 km/h
Hourly data recorded from MMPB, located 0 kilometers away from Puebla - Jardines de San Manuel, Puebla







STORIES FROM OUR PARTNERS